Theta_e
323 324 325 325 327 326 323 322 320 320 322 320 317 316 320 328 318 309 331 353 334 332 344 337 335 340 340 349 357 349 345 348 356 360 355 350 349 349 350 351 352 355 356 356 356 356 354 351 351 354 355 355 355 355 355 357 358 359 361 361 361 362 362 362 362 362 361 362 361 361 361 361 361 360 360 359 359 358 358 357 357 357 356 356 355 355 354
323 323 326 325 324 325 324 324 324 321 322 321 319 321 323 325 322 320 336 350 343 344 349 341 341 347 346 349 352 348 348 350 356 365 361 352 350 349 349 351 351 352 356 356 356 357 357 354 352 353 354 355 355 355 355 356 358 359 360 361 362 362 362 362 362 362 362 362 362 361 361 361 361 360 360 359 359 358 358 357 357 357 356 356 356 355 355
322 320 325 326 323 325 322 323 327 323 322 322 320 321 323 323 323 325 332 336 337 345 352 347 348 360 360 351 349 354 359 356 354 358 359 353 350 350 349 349 349 350 353 356 357 358 359 357 353 352 354 355 355 355 355 355 357 358 359 361 362 361 362 362 362 361 362 362 361 362 361 361 361 360 360 359 358 358 358 357 357 356 356 356 355 355 355
323 321 322 323 322 323 319 319 324 324 321 321 320 322 324 323 324 327 325 323 329 341 349 341 340 353 354 348 356 362 364 365 361 357 357 353 349 349 349 349 350 351 353 355 358 358 357 355 353 353 354 355 355 355 355 355 356 357 358 359 360 361 362 362 362 362 362 362 362 361 361 361 361 360 360 360 358 358 357 357 357 357 356 356 355 355 355
327 324 321 321 320 318 315 317 322 324 324 325 323 325 327 326 329 328 322 325 338 350 349 339 336 342 346 353 366 366 364 371 369 362 359 357 352 351 351 351 353 352 352 354 357 356 354 352 353 355 355 355 355 355 355 355 355 355 358 358 359 361 361 361 363 362 362 362 361 361 361 361 361 361 360 360 359 358 357 357 357 357 356 356 355 355 354
328 325 323 321 316 313 318 324 327 327 327 328 325 324 327 327 327 328 326 331 346 355 350 343 338 339 344 352 359 358 358 364 367 364 362 358 355 353 351 351 352 351 353 354 354 352 351 351 352 355 356 356 356 356 355 355 355 355 357 358 358 359 360 361 362 362 362 362 361 361 361 361 361 361 360 360 359 358 357 356 356 357 357 356 356 356 355
329 327 324 318 313 319 333 338 333 329 327 330 333 336 339 337 330 332 336 337 341 348 347 343 344 346 347 350 350 347 347 351 357 362 361 359 358 355 353 353 353 352 354 354 354 352 350 351 353 353 356 357 356 356 356 355 355 355 356 357 358 359 360 361 361 362 362 362 361 361 361 361 361 361 360 360 359 358 357 357 356 357 357 357 357 357 356
329 327 323 320 321 332 342 339 334 335 333 330 335 339 346 351 345 344 351 353 352 354 351 347 350 352 350 350 349 346 348 349 348 350 354 355 355 354 354 355 355 355 353 350 351 351 350 352 353 353 354 357 357 356 356 355 355 355 355 356 358 358 360 360 361 362 362 361 361 361 360 361 361 361 361 360 359 359 358 357 357 357 357 358 357 357 357
331 327 324 324 326 327 332 335 337 340 339 335 337 340 346 357 354 349 354 362 362 361 361 356 351 350 353 359 357 352 354 354 346 342 345 345 349 355 354 353 353 351 349 348 348 349 351 353 355 354 354 355 356 357 356 356 355 355 354 355 356 357 359 360 360 362 362 361 361 361 360 361 360 361 361 360 360 359 358 358 358 357 358 358 358 358 358
334 329 325 323 321 323 332 340 341 342 343 344 347 349 352 360 360 353 359 369 367 366 371 366 356 355 360 367 364 359 357 355 350 350 348 340 340 351 355 357 359 352 349 351 350 352 355 356 355 356 356 355 356 356 356 356 355 354 354 354 354 356 358 358 359 361 361 362 361 361 361 361 360 360 361 361 360 360 359 359 358 358 358 358 358 358 358
336 331 327 321 321 329 341 345 342 339 342 347 352 352 353 362 361 355 359 366 364 366 374 378 376 377 377 375 369 362 358 355 354 358 360 351 345 349 351 353 358 354 352 354 353 354 359 359 358 359 358 356 356 356 356 356 355 354 354 353 353 354 355 357 358 359 361 361 362 361 361 361 360 361 361 361 361 360 360 360 359 358 359 358 358 358 358
337 335 331 325 326 337 343 342 339 338 341 344 343 340 346 360 359 354 356 362 362 360 367 381 389 389 387 384 373 358 352 353 353 354 358 357 358 359 355 352 353 351 352 357 357 356 358 360 362 361 360 359 357 356 357 356 355 355 354 354 354 353 353 355 356 357 359 361 362 362 362 362 361 361 361 361 361 361 360 359 359 359 358 358 357 357 356
339 337 335 330 334 342 341 338 339 340 340 338 335 335 350 359 354 352 354 358 360 359 363 376 380 371 367 366 359 350 348 352 352 351 352 353 354 355 354 354 354 353 354 357 357 356 356 359 362 362 362 362 359 357 357 356 355 355 354 354 354 352 352 353 354 355 358 359 361 362 362 363 362 362 362 362 361 361 360 359 358 358 358 357 357 356 355
342 340 340 337 337 341 337 335 340 342 336 336 338 347 359 356 352 355 355 355 358 358 358 362 361 355 351 349 347 347 347 348 350 349 349 352 354 354 352 351 350 353 359 361 358 357 357 358 359 361 362 362 361 359 358 357 357 356 354 354 353 352 352 352 352 355 357 359 361 362 363 364 363 363 363 362 360 360 358 358 357 357 356 356 355 354 354
345 342 343 343 341 340 336 337 343 344 341 345 350 353 353 350 351 355 355 355 356 354 352 352 350 348 347 345 345 346 346 346 347 347 345 348 351 352 352 351 348 352 364 366 359 359 362 361 361 361 361 361 361 361 359 359 359 357 355 354 352 351 351 351 352 354 358 360 362 363 364 365 364 363 362 360 358 358 357 357 356 354 353 353 352 351 350
346 343 343 344 342 338 335 337 342 342 341 347 351 350 349 351 352 353 354 355 352 349 349 350 348 347 347 346 345 345 345 345 345 345 345 345 346 347 349 350 347 350 359 360 354 358 364 364 363 363 361 362 361 360 361 361 361 360 358 355 353 350 351 353 354 356 360 362 363 364 365 364 363 362 360 357 356 356 356 355 352 349 349 349 348 347 347
344 344 344 344 341 337 335 336 339 338 336 337 340 342 344 347 348 350 352 350 348 347 348 348 348 348 346 345 345 344 345 345 344 345 344 344 345 346 346 347 346 347 354 355 351 354 359 361 363 363 362 362 360 357 359 362 362 363 361 359 357 355 354 357 359 361 363 364 364 364 364 363 361 359 356 354 352 352 351 349 347 345 344 345 346 345 344
341 342 342 342 340 338 336 336 336 336 333 331 332 335 338 339 341 344 346 345 345 345 344 345 346 345 344 345 345 344 344 344 344 345 345 343 344 345 346 346 345 344 347 350 349 350 351 352 356 358 358 361 360 357 358 361 363 366 367 365 363 361 361 362 363 364 365 364 363 362 360 359 357 354 351 350 347 345 344 343 342 342 342 342 342 342 342
341 341 341 340 340 339 336 336 336 335 333 330 329 331 333 333 334 335 337 338 339 337 337 338 338 337 338 340 340 341 342 344 343 344 344 344 344 345 346 346 344 343 344 345 345 346 347 348 351 351 353 355 357 356 358 360 363 366 367 366 364 364 364 364 364 363 362 359 356 354 352 351 350 347 346 345 343 341 341 341 341 340 340 340 339 339 339
342 344 340 337 339 338 335 335 337 335 333 332 330 328 328 328 328 329 330 330 330 330 331 331 331 331 331 332 333 335 337 339 341 341 342 343 343 344 345 346 345 344 343 343 344 345 345 347 348 349 350 351 353 355 357 359 362 363 360 357 357 356 357 358 357 355 353 349 347 346 345 345 345 344 344 344 343 341 340 342 342 340 338 338 339 339 338
341 343 339 337 340 341 337 335 335 335 333 332 330 328 325 324 325 326 326 327 327 327 327 328 328 328 328 328 330 331 332 334 335 336 338 340 340 342 344 346 346 345 342 342 343 344 345 346 347 347 348 350 353 356 359 361 362 357 353 352 351 348 347 348 347 346 345 345 345 344 343 342 342 342 343 343 342 340 341 344 345 344 341 340 339 339 339
342 340 337 337 340 341 338 335 334 335 334 332 330 328 325 323 323 323 323 324 324 324 324 325 326 327 327 327 328 329 330 332 333 334 336 338 338 340 343 345 346 344 342 342 343 343 345 346 346 346 346 348 350 353 355 357 356 351 349 350 349 346 344 344 344 343 343 342 342 341 340 338 338 338 339 341 342 343 343 345 347 346 344 342 341 340 339
340 336 335 336 338 339 337 335 334 336 335 333 331 328 325 323 322 322 321 322 323 323 324 324 324 326 327 327 327 327 328 329 330 331 334 337 339 340 342 344 346 344 343 342 342 343 344 345 346 346 347 347 347 348 349 350 349 347 346 345 345 344 343 342 341 341 339 338 338 337 336 336 337 336 336 338 341 343 343 343 342 342 342 341 340 339 338
335 333 334 335 337 338 336 333 334 336 336 333 331 329 327 324 323 323 323 323 323 323 324 324 325 326 327 327 327 327 326 326 327 328 331 334 337 338 340 342 344 344 344 343 341 341 343 344 345 345 346 346 345 345 345 345 344 343 342 341 341 341 341 339 339 338 336 336 336 335 334 335 336 335 334 333 334 337 339 339 338 338 338 338 337 337 337
332 331 332 333 336 336 334 333 334 334 334 333 331 329 328 326 325 325 326 326 326 324 324 325 325 325 326 327 328 328 327 325 325 326 329 332 333 334 336 338 340 343 344 344 343 342 342 343 343 344 344 345 344 343 344 343 342 340 340 340 340 340 339 338 338 336 335 335 335 334 334 334 334 334 334 331 329 330 333 336 337 337 336 336 336 336 336
330 330 330 333 335 335 333 334 333 331 330 330 330 329 329 327 325 323 323 324 325 325 325 327 326 324 324 327 329 328 327 325 323 323 326 329 331 332 332 334 337 340 341 342 343 344 342 341 342 343 343 343 343 342 342 342 341 341 341 340 339 339 338 338 337 337 336 336 335 335 335 334 334 333 333 331 330 329 330 332 334 335 335 336 337 336 336
329 330 332 334 334 333 333 333 331 328 328 328 328 329 329 328 325 323 321 321 321 321 322 324 324 323 324 325 327 328 326 323 321 321 324 327 331 331 330 331 334 337 339 339 340 341 341 341 340 341 341 343 344 345 343 342 342 342 341 340 340 339 339 338 338 337 337 337 336 335 334 334 333 332 331 331 331 331 331 331 330 330 331 333 335 336 337
329 331 333 334 333 330 330 329 328 327 328 328 329 330 329 327 325 324 324 323 323 322 321 321 321 324 326 326 327 329 328 324 322 323 324 326 329 329 327 327 331 335 338 338 338 339 340 340 339 339 340 342 344 345 344 343 343 343 343 343 342 341 340 339 338 338 337 337 336 335 334 333 333 332 331 331 331 332 332 332 330 329 328 330 332 334 335
328 329 330 331 331 330 328 327 327 327 327 328 329 329 328 327 327 327 327 327 327 327 327 325 323 324 325 325 326 330 331 328 326 324 323 325 329 329 325 324 328 332 336 337 338 338 338 338 338 338 339 341 343 344 344 344 343 343 343 343 342 340 339 338 338 338 337 336 336 335 334 333 333 332 331 331 331 331 331 330 329 329 329 329 331 332 333
328 328 328 329 330 330 328 326 327 327 328 328 328 327 326 327 329 330 329 329 329 329 330 330 329 326 326 325 326 328 330 329 326 323 322 326 330 328 324 324 328 332 333 335 337 337 337 337 337 337 338 341 342 342 343 343 343 342 342 342 341 340 339 338 338 338 337 336 336 335 334 333 333 332 332 331 331 331 330 329 329 330 330 330 331 332 332
326 327 328 328 330 330 329 328 329 329 329 329 329 327 326 326 329 331 331 331 331 330 330 333 333 331 330 328 326 327 328 327 324 321 322 326 330 329 325 324 327 331 332 334 335 335 336 337 337 336 338 340 341 341 341 342 343 343 342 341 341 341 340 339 338 338 337 336 336 335 334 333 333 333 332 332 331 331 330 328 328 329 330 330 331 332 333
325 326 326 327 328 329 328 329 329 330 330 330 330 328 327 327 328 330 330 331 332 332 332 333 334 332 330 328 327 328 329 328 325 323 322 325 329 331 327 325 327 331 333 334 334 335 336 337 336 336 337 339 340 340 339 339 341 343 343 342 341 341 340 339 338 338 337 337 336 336 335 334 333 333 333 332 332 331 330 328 327 328 328 329 330 331 331
327 327 327 326 327 329 328 329 330 329 329 329 329 329 329 328 329 330 331 333 334 335 335 334 332 329 328 328 328 329 329 329 328 328 326 326 329 332 330 327 327 330 332 332 333 335 337 336 335 336 337 339 339 340 339 338 340 341 342 341 341 341 340 340 339 338 338 337 337 337 336 335 334 334 334 333 333 332 330 328 327 327 328 329 329 330 329
327 327 326 325 326 328 329 329 329 329 329 328 328 329 330 330 330 331 333 335 335 334 334 332 328 326 328 328 328 328 330 332 333 332 329 327 329 331 332 330 327 328 330 330 330 333 337 337 335 334 336 338 339 340 340 340 340 340 341 341 341 341 340 339 339 338 338 337 337 337 337 336 336 335 334 334 334 332 331 329 328 328 328 328 328 328 327
328 327 325 324 325 327 329 329 329 329 329 329 329 329 330 330 329 330 332 332 330 329 329 328 326 326 327 327 327 329 332 334 333 331 330 329 329 332 333 333 331 330 332 332 331 333 337 338 337 335 335 336 337 339 340 340 339 339 339 339 340 340 340 339 339 338 338 338 337 337 337 337 337 336 335 335 334 333 332 330 328 328 328 326 326 326 325
327 327 327 326 326 327 328 328 328 327 328 329 329 329 330 330 329 328 329 328 327 326 326 326 327 327 327 327 329 330 331 331 331 330 331 331 331 332 332 332 331 331 332 333 334 336 338 339 338 336 337 337 337 337 338 338 338 337 338 338 339 339 338 338 338 338 338 337 337 337 337 337 337 336 336 335 334 333 332 331 329 329 328 326 325 324 324
326 325 325 325 325 326 327 327 326 326 327 328 328 328 328 328 327 327 327 327 326 327 327 327 328 328 328 328 329 329 330 330 330 330 330 330 330 330 330 331 331 331 331 332 334 335 336 337 336 335 337 339 339 338 337 337 337 337 337 337 337 337 338 338 338 337 337 337 337 337 336 336 336 337 336 335 334 332 332 331 330 328 327 326 326 325 324
325 324 324 324 324 325 325 325 325 325 326 326 327 327 327 326 326 326 326 326 326 326 327 327 327 328 328 328 328 328 329 329 329 329 329 329 329 329 329 329 331 331 332 331 331 331 332 333 334 334 335 336 337 337 337 336 336 335 335 335 335 335 335 336 336 336 336 335 335 334 333 333 334 335 335 334 333 332 331 330 329 328 327 326 327 326 325
324 323 323 323 323 323 324 323 324 324 324 325 326 326 326 326 325 325 325 325 326 326 326 327 327 328 327 326 326 327 327 327 328 328 328 328 328 328 328 329 331 331 331 330 329 328 328 329 331 333 334 334 334 335 334 333 333 332 333 333 332 332 332 333 333 334 333 331 330 330 329 329 330 331 332 332 332 332 331 330 329 329 328 328 328 327 326
324 324 323 323 323 323 324 324 324 323 323 324 324 324 324 325 325 325 325 325 325 325 326 326 327 327 327 326 325 325 326 327 327 327 327 327 327 327 327 328 328 328 328 327 326 326 326 327 328 330 331 332 333 333 333 332 332 331 330 331 331 331 331 331 331 331 330 329 329 328 328 327 328 328 329 330 330 330 331 331 330 330 329 329 329 329 327
324 324 323 323 324 324 324 324 323 323 323 323 323 322 322 322 323 324 325 325 325 325 325 326 326 326 326 327 326 326 326 327 327 326 327 327 326 326 328 329 327 324 324 325 324 322 322 322 323 325 327 330 332 332 332 333 332 331 330 329 330 331 331 330 330 330 329 328 327 327 327 327 327 327 328 328 328 329 330 331 330 330 330 329 329 329 328
324 324 324 325 325 323 322 322 323 323 323 323 322 322 321 320 321 322 323 324 325 325 326 326 326 326 326 326 327 327 326 326 325 324 325 326 325 326 328 328 325 320 319 320 321 320 319 318 318 320 322 325 328 329 330 331 331 331 330 329 329 329 329 329 329 329 328 327 327 327 326 325 326 326 326 327 328 328 329 329 329 329 329 328 328 328 328
324 324 325 325 325 322 320 320 321 321 322 322 322 322 321 321 320 320 321 322 323 323 323 324 325 325 325 324 325 325 324 323 323 322 321 322 324 325 326 325 322 317 315 316 317 317 317 316 316 317 319 320 322 324 327 329 330 330 329 328 328 328 327 327 327 328 328 327 327 327 326 326 326 325 325 325 325 326 327 327 328 328 328 327 327 327 327
322 321 322 322 322 320 320 319 319 320 320 320 320 320 320 320 320 320 320 320 320 320 319 319 320 321 322 322 322 322 323 322 322 321 320 321 322 323 324 324 322 319 317 317 316 316 316 315 315 316 317 318 319 321 323 326 328 328 327 327 327 327 327 327 328 328 327 326 326 326 326 325 325 325 324 324 324 323 323 323 323 324 324 324 325 326 326
320 319 320 320 319 318 318 318 318 318 318 318 318 318 318 319 320 320 319 319 319 318 318 317 317 317 318 318 318 319 320 321 321 321 322 323 324 323 323 323 323 322 320 318 318 317 317 317 317 317 317 318 319 319 320 321 322 322 322 324 326 327 327 326 327 327 326 325 325 325 324 324 324 324 323 323 323 322 320 318 318 319 320 322 324 324 324
318 318 317 317 317 317 317 317 317 317 317 317 317 317 317 317 317 317 317 318 318 318 317 318 317 316 316 316 315 316 316 317 317 318 319 321 322 322 321 321 323 323 322 320 319 319 319 319 320 319 319 319 320 320 319 319 319 318 318 319 323 325 326 326 326 326 326 325 325 325 324 323 323 322 322 322 322 321 318 315 316 317 317 318 319 319 319
315 314 313 313 313 314 314 315 315 315 316 317 318 318 317 316 316 316 315 315 316 316 317 317 317 317 317 316 316 315 315 316 317 317 317 318 319 320 320 320 321 321 321 320 320 320 320 320 319 320 320 320 320 320 320 319 319 318 318 317 318 321 324 326 325 324 324 323 322 324 324 323 320 318 318 318 318 317 315 313 313 314 314 314 314 313 314
313 311 310 310 310 310 311 311 312 313 314 315 317 317 317 316 316 316 315 314 314 315 315 315 316 316 316 316 315 315 315 316 317 317 316 317 317 318 318 317 317 318 318 318 317 318 319 319 319 319 319 319 319 319 319 319 319 319 318 318 317 317 320 321 320 319 318 317 318 320 322 320 317 314 314 315 314 314 314 313 313 313 313 313 312 312 312
311 309 309 308 308 309 309 309 310 311 312 313 314 314 315 314 315 316 316 315 315 314 314 314 314 314 314 314 314 314 315 315 315 315 315 315 315 315 315 315 314 314 314 313 313 314 315 317 317 318 318 318 318 318 318 318 318 318 318 318 317 317 317 317 316 316 315 315 315 316 317 316 315 314 314 314 313 313 313 313 313 312 313 312 312 312 312
309 309 308 308 308 308 308 308 308 308 310 311 311 311 311 311 312 313 315 315 315 314 313 313 313 313 313 312 312 312 313 312 312 312 312 312 312 312 312 312 311 311 310 310 310 310 311 312 313 314 314 315 316 317 317 317 317 317 318 318 317 317 317 317 316 316 315 315 315 315 315 315 314 314 314 314 314 313 313 313 312 312 312 312 312 312 312
308 308 308 308 307 307 307 308 308 308 309 310 310 310 309 309 309 310 312 313 314 314 313 312 312 312 311 311 310 310 310 310 310 310 310 310 309 309 309 309 308 308 308 308 308 308 308 308 309 309 310 311 312 314 315 315 315 315 316 317 317 317 317 317 317 316 316 315 315 315 315 314 314 315 314 314 314 313 313 313 313 312 312 312 312 312 311
308 307 307 307 307 307 307 307 307 307 308 310 310 309 309 308 308 308 309 311 313 314 313 312 312 310 309 309 308 308 308 308 308 309 309 308 308 308 307 307 306 306 306 306 307 307 307 306 307 307 308 308 309 311 312 313 314 314 315 315 316 316 316 316 316 316 316 316 316 316 315 315 315 315 314 314 313 313 313 313 313 313 312 312 312 312 312
Wind_Speed
19 19 17 18 13 9 11 15 16 17 20 21 20 16 10 11 9 12 8 9 9 8 8 9 10 9 8 7 8 8 7 8 9 8 10 13 13 12 12 13 13 14 14 15 16 16 16 19 22 25 28 31 33 34 36 37 38 39 40 40 40 40 41 42 43 43 44 44 44 44 44 43 43 42 42 42 42 41 40 41 41 41 41 40 39 39 39
16 20 19 19 18 12 9 12 15 16 18 22 22 19 14 13 12 10 8 10 11 7 8 10 9 8 8 6 5 5 5 8 10 12 12 12 12 12 13 14 13 14 15 15 15 15 15 16 19 23 26 29 32 34 35 37 38 40 41 40 40 40 41 43 44 43 43 43 42 43 43 43 43 43 42 42 41 40 40 41 41 40 38 37 37 37 37
10 17 21 19 19 17 12 10 13 15 16 18 19 18 15 12 11 8 8 10 9 6 7 9 8 7 6 3 4 6 7 8 9 12 13 14 15 16 16 16 16 15 15 14 14 14 14 16 20 24 27 30 33 34 35 37 39 40 41 41 41 41 42 42 42 42 42 42 42 42 43 44 43 43 43 42 41 40 40 40 39 38 36 36 37 37 37
6 11 19 22 20 17 14 12 13 14 14 14 14 13 12 10 9 8 7 8 8 6 7 9 9 7 8 7 6 6 7 6 6 9 11 12 14 16 17 16 15 14 15 14 14 15 15 17 22 26 28 29 31 33 36 38 40 40 41 41 41 42 42 41 41 42 42 42 42 42 43 43 43 43 42 41 40 40 39 38 37 36 35 36 37 37 37
6 10 14 20 19 13 13 14 12 11 9 10 11 11 12 12 10 8 8 8 7 7 8 8 9 7 8 9 7 6 7 7 7 8 9 9 10 12 13 13 13 14 13 13 15 16 16 19 25 30 31 31 32 36 39 40 39 39 40 41 41 41 41 40 41 43 43 42 42 43 43 44 43 41 40 40 40 39 38 37 36 35 35 36 36 36 38
6 14 13 14 16 12 11 8 10 13 11 10 9 7 9 11 8 6 7 8 8 8 9 10 10 8 7 8 6 4 5 7 9 9 10 10 10 11 11 12 13 14 13 13 14 17 21 26 31 35 35 36 37 40 40 39 38 39 40 40 39 39 40 40 42 42 42 42 43 43 43 42 40 39 39 40 40 38 36 35 34 34 35 36 36 37 38
5 10 9 10 13 11 8 3 7 13 13 12 9 2 2 5 7 5 2 2 4 5 5 7 9 7 5 3 3 5 4 1 7 10 11 12 12 12 12 12 12 12 13 14 14 17 24 30 33 33 34 35 37 36 35 35 37 39 39 39 39 39 39 40 41 41 42 42 43 42 41 40 38 38 39 39 37 35 34 34 35 35 35 36 37 38 38
5 5 4 9 9 5 3 1 3 6 8 10 9 5 5 4 3 3 6 5 5 3 0 4 7 7 6 5 7 8 8 7 3 6 9 11 13 14 15 16 16 17 17 17 18 21 26 29 29 30 33 36 35 33 34 36 37 38 37 37 37 38 38 40 41 41 42 42 41 40 39 38 37 38 38 37 36 34 33 34 35 35 36 37 38 38 37
3 3 5 5 4 2 2 1 1 3 5 9 9 5 3 6 5 2 8 8 6 6 3 2 4 3 6 7 7 8 10 10 7 6 7 9 10 12 12 12 13 16 19 22 24 26 28 28 29 32 35 37 35 32 33 34 35 36 35 35 37 38 39 41 42 43 43 42 40 39 38 37 37 38 37 36 35 34 34 34 35 36 37 38 38 37 36
1 3 5 3 3 4 3 2 2 3 6 8 11 8 1 5 6 2 5 7 5 5 5 4 5 2 7 5 4 8 11 12 10 9 8 7 6 8 9 10 10 10 14 20 23 24 24 25 30 34 35 35 33 30 31 32 33 33 32 34 36 38 40 43 44 44 43 42 40 38 38 38 37 37 36 35 35 36 36 36 36 37 37 35 34 35 36
2 3 5 4 4 3 4 8 5 1 5 8 11 8 2 5 6 4 3 7 6 6 7 4 4 6 5 0 4 6 8 9 9 11 11 9 4 2 3 6 10 14 19 22 23 22 21 23 30 33 33 32 30 27 28 32 32 31 32 36 39 40 42 44 44 43 42 41 40 38 38 38 37 36 36 36 36 37 37 36 35 35 34 33 32 33 34
3 4 5 4 2 2 9 13 13 12 4 7 10 4 4 5 5 4 5 8 5 5 6 6 7 6 4 4 4 6 6 5 5 8 10 10 9 8 7 7 6 12 21 22 18 17 19 24 31 33 32 30 27 27 29 30 29 30 35 40 42 45 45 43 41 41 41 40 40 39 38 37 36 37 36 35 36 36 35 34 33 33 33 33 31 30 29
5 5 5 3 1 3 12 16 16 16 7 5 7 4 6 3 1 2 6 7 4 4 6 6 5 3 2 1 2 5 6 5 6 8 8 8 8 9 9 12 12 6 11 15 17 22 28 32 34 34 32 28 25 26 27 25 27 35 41 44 45 45 43 39 38 39 40 40 40 39 38 37 36 36 36 36 36 36 34 33 33 32 31 31 29 28 26
3 4 4 4 1 3 15 21 18 10 3 4 5 4 3 3 4 5 6 6 5 7 9 8 5 4 4 4 3 5 7 7 8 9 10 10 11 12 14 17 17 10 3 8 13 18 23 26 27 27 26 24 25 27 25 25 33 40 41 43 44 41 38 37 38 39 39 39 39 37 37 37 37 35 35 36 37 36 35 34 32 30 29 28 27 25 24
2 3 3 2 2 6 18 21 13 8 6 2 3 3 4 4 6 7 7 6 6 7 9 8 6 5 5 6 5 6 7 8 8 9 10 10 10 11 12 16 18 14 6 1 2 3 5 7 8 9 11 12 14 17 19 27 38 42 40 40 39 35 34 35 36 38 38 38 39 38 38 40 39 37 36 35 36 36 36 34 32 29 28 27 26 24 23
1 1 1 1 3 8 14 11 5 4 6 5 1 5 6 5 5 6 6 6 6 7 8 8 7 7 7 7 8 8 9 9 9 9 9 9 9 9 9 11 15 14 8 6 6 5 4 2 1 3 4 4 4 4 8 15 20 23 28 33 33 31 32 33 34 36 37 38 38 38 39 40 39 37 35 35 35 35 36 34 31 28 27 26 26 24 22
1 2 3 3 4 6 8 7 5 7 9 9 6 5 7 5 4 4 6 6 6 6 7 8 8 8 7 7 8 9 9 10 10 10 10 9 9 9 9 11 13 12 8 7 8 8 8 6 4 6 6 5 3 1 3 7 9 11 17 24 27 29 31 32 34 35 36 37 38 38 39 40 39 37 35 34 32 31 32 31 28 26 26 26 26 24 22
1 2 3 4 5 6 8 8 8 9 11 11 9 6 6 6 5 5 7 7 6 6 7 9 9 7 6 7 8 8 8 9 10 10 10 10 11 11 12 13 15 14 10 9 9 9 12 12 8 6 5 4 3 1 3 2 2 5 11 17 22 26 29 31 33 35 35 33 32 31 30 30 30 29 30 29 27 24 24 23 24 25 26 25 24 23 23
1 2 2 3 5 5 7 9 10 12 12 11 10 8 6 5 7 8 7 8 8 8 8 10 10 7 7 8 8 8 8 9 9 10 11 11 11 11 12 14 16 15 11 10 10 9 12 14 12 8 6 5 4 6 6 5 6 9 11 11 12 15 20 24 26 29 30 30 29 28 28 29 30 28 26 27 26 24 24 23 22 24 24 23 23 23 23
2 1 3 6 6 4 6 8 8 10 11 10 10 8 7 7 9 9 8 8 8 9 8 9 10 10 9 8 8 8 8 8 8 9 10 10 10 11 13 15 15 12 9 8 9 9 10 12 13 12 11 10 7 7 9 13 17 19 18 15 11 10 13 19 24 28 31 33 34 34 33 33 33 30 28 28 28 28 30 31 28 26 26 25 25 26 25
2 1 4 7 6 4 8 10 8 9 10 9 10 9 8 9 9 9 10 9 8 9 9 8 10 11 9 8 8 9 8 8 9 9 9 10 11 12 14 15 13 10 8 8 9 10 10 12 14 16 15 14 12 13 16 21 27 30 32 32 29 24 20 22 27 31 33 35 35 36 35 33 30 29 29 31 29 27 29 32 30 28 27 28 29 29 29
0 1 3 6 4 3 6 7 8 9 10 9 9 9 8 9 8 8 10 10 9 10 9 7 9 11 8 7 8 9 8 8 8 8 9 10 11 13 16 16 13 10 10 10 10 10 11 13 16 17 18 18 18 19 23 28 32 34 34 34 36 35 30 26 28 30 33 34 34 34 35 35 32 28 27 29 31 29 28 27 26 24 25 27 29 29 29
1 1 3 3 2 1 4 5 6 8 9 8 9 9 9 8 7 7 8 10 10 10 9 7 8 9 8 7 8 9 8 8 8 9 11 10 10 13 16 16 12 9 9 9 10 10 10 11 13 15 18 20 21 22 24 26 29 31 27 21 21 26 26 26 27 29 31 34 34 32 32 34 35 33 29 27 27 27 26 24 22 22 22 24 25 27 27
2 2 3 2 1 1 3 4 6 8 8 7 7 7 7 7 5 6 8 8 8 8 7 7 7 7 8 8 8 9 9 8 8 10 12 14 15 16 17 17 14 11 9 9 10 11 12 11 10 9 12 17 20 22 24 24 22 22 23 19 16 17 19 21 23 24 25 29 33 33 31 31 33 33 31 27 22 21 21 20 20 21 21 21 22 23 24
2 2 3 3 2 2 1 2 5 7 7 5 3 4 3 4 5 5 6 7 6 6 6 6 6 6 7 7 7 8 8 7 9 11 13 16 17 17 18 18 17 15 13 12 11 12 13 13 12 9 7 10 14 18 24 26 22 18 18 19 19 20 21 23 27 27 25 25 29 31 30 30 31 31 30 27 23 21 20 19 18 19 20 21 22 21 20
3 3 5 3 3 1 1 1 4 5 5 3 2 3 5 5 5 6 6 6 5 5 5 5 5 6 8 8 7 7 7 7 11 13 12 12 13 14 15 16 17 17 18 17 16 15 14 14 15 13 8 1 5 11 18 22 22 19 20 21 22 23 23 25 28 29 27 26 28 29 30 30 29 28 27 27 27 26 24 21 18 17 18 20 22 21 20
3 4 5 5 4 1 0 1 3 3 4 4 3 5 6 6 5 5 6 7 7 7 7 7 6 6 8 8 8 8 8 9 11 12 10 9 11 12 14 17 19 20 21 21 20 19 17 17 19 18 15 8 2 5 11 15 19 23 25 26 25 25 26 27 27 27 27 28 29 29 29 29 28 28 27 27 27 26 24 22 20 18 17 19 21 22 22
3 3 2 4 5 3 2 3 4 4 4 4 4 5 6 4 4 5 6 7 7 7 7 9 8 6 6 7 7 7 8 9 9 8 8 9 11 13 17 19 20 20 20 21 21 20 21 20 20 21 21 16 8 8 12 14 16 20 24 25 25 25 26 27 28 27 27 28 30 30 29 28 28 28 28 27 26 25 24 24 23 21 19 19 20 21 22
4 1 4 7 7 4 3 4 5 5 5 5 5 6 5 4 5 5 6 6 5 5 5 7 8 7 6 6 6 6 6 7 7 7 8 10 13 14 15 17 19 21 22 22 22 23 23 21 20 20 21 18 17 18 21 22 21 20 21 21 22 23 24 26 26 27 27 27 28 29 30 29 29 29 28 26 26 26 25 24 23 23 22 21 21 20 20
4 3 6 8 7 5 3 4 5 5 4 5 6 5 4 4 5 5 5 4 4 4 4 5 6 6 6 6 6 6 6 6 8 10 11 13 15 16 17 18 19 18 18 20 22 23 22 19 19 21 21 18 16 16 18 22 24 23 22 20 20 22 25 26 27 27 26 27 28 28 28 27 28 28 26 25 25 25 24 23 24 24 24 23 23 23 22
5 7 7 8 8 6 3 2 3 4 4 4 4 4 3 4 5 5 4 4 4 4 4 4 5 5 5 5 6 7 8 9 11 13 14 16 16 17 19 20 16 11 11 16 21 23 22 21 21 22 21 18 15 13 10 13 18 22 22 20 20 22 25 27 27 27 26 27 27 27 26 26 26 27 26 25 25 25 24 24 24 24 24 23 23 24 24
7 10 10 9 8 7 4 2 3 4 3 3 2 3 3 3 5 4 3 3 3 3 4 4 4 4 4 4 6 6 7 8 10 11 13 15 16 17 18 19 18 17 18 21 23 24 24 23 23 22 20 16 16 16 12 8 12 20 22 21 21 23 25 25 25 25 25 25 24 23 23 24 24 24 23 22 22 23 24 24 23 24 26 25 24 24 25
8 9 8 6 6 7 6 5 5 5 5 4 3 3 2 2 3 1 2 3 4 4 3 3 3 4 4 3 4 5 5 6 7 9 10 12 15 17 17 17 19 21 23 24 25 26 25 23 21 20 19 16 14 17 15 11 12 17 21 23 23 23 23 24 24 23 23 23 22 21 22 22 22 21 21 20 20 20 22 23 24 24 25 25 25 25 24
6 7 5 2 3 6 7 6 5 5 6 5 4 4 4 3 2 1 2 3 4 4 4 4 5 6 5 4 3 4 4 4 4 5 6 8 12 14 15 15 18 21 23 24 24 24 23 21 20 18 18 16 13 12 14 14 14 16 19 22 23 22 21 22 23 23 22 22 23 23 22 22 23 22 21 21 22 22 22 22 23 23 24 23 23 24 23
3 4 5 3 3 4 6 5 5 5 6 6 5 3 4 4 4 4 3 3 3 4 4 5 6 8 7 4 3 4 4 4 4 5 6 8 10 12 14 15 17 19 21 22 22 19 18 18 18 16 16 16 14 10 10 11 13 15 17 18 19 20 21 22 23 23 23 23 25 25 24 24 24 24 24 24 24 25 24 23 22 23 23 22 21 22 22
3 4 5 3 2 3 4 5 5 5 6 6 5 4 5 6 6 6 6 7 8 10 9 7 9 10 9 7 6 6 7 7 8 9 11 12 13 15 15 15 16 17 17 18 20 19 17 16 16 16 16 16 14 10 7 9 11 13 15 15 15 16 18 20 22 22 23 23 25 25 25 25 25 26 27 28 27 26 25 24 23 22 23 22 21 20 20
5 6 6 5 4 5 6 6 6 6 6 6 6 6 6 6 6 8 10 11 13 13 12 12 11 9 8 10 12 13 13 12 12 13 14 15 17 18 16 15 16 15 11 12 17 19 17 15 15 15 16 17 15 11 8 7 8 8 9 11 12 12 13 15 17 18 19 21 24 25 23 23 26 28 28 27 26 26 25 25 23 22 22 22 21 20 20
7 8 9 8 7 6 7 9 10 10 8 7 6 7 8 8 9 12 13 12 13 14 14 14 13 11 12 14 15 14 14 15 15 16 16 17 18 18 15 13 14 13 10 12 19 22 21 19 17 15 15 15 15 12 9 8 7 7 7 8 8 9 10 10 11 11 10 10 13 14 13 14 21 27 27 26 26 26 25 24 24 23 22 21 20 20 21
8 9 9 9 9 8 8 10 12 12 10 7 5 7 9 11 13 14 14 15 16 16 16 15 14 13 12 11 10 10 13 16 17 17 16 17 19 19 17 17 20 19 16 18 22 23 23 24 23 20 16 13 12 11 11 11 11 10 9 8 8 7 6 7 9 10 7 5 2 7 9 11 15 20 20 21 23 25 25 24 24 24 23 21 20 21 21
7 7 7 7 8 6 5 6 9 11 11 10 8 9 11 12 13 13 14 16 17 17 17 15 13 10 9 8 7 8 12 17 19 18 17 18 19 17 16 18 23 23 20 20 21 21 22 23 25 24 20 15 12 10 9 10 9 8 9 12 13 10 8 10 12 14 13 12 13 15 15 17 20 22 20 17 17 18 21 23 24 23 22 21 21 22 23
5 6 6 6 5 4 4 6 8 9 11 12 13 14 15 15 14 12 10 11 14 16 17 16 13 10 10 11 11 11 13 16 19 19 18 17 15 10 8 12 18 21 19 18 19 20 21 21 22 23 21 17 13 10 7 6 4 1 2 7 11 10 10 11 13 14 17 20 21 18 15 16 20 22 22 20 17 17 18 20 21 21 21 21 21 22 23
7 8 8 7 6 6 7 8 8 8 10 13 15 15 16 17 16 14 12 12 12 13 14 15 14 13 13 13 12 13 14 15 17 18 18 16 13 9 7 10 16 19 19 18 18 19 20 21 22 23 23 19 14 9 7 7 7 6 6 8 10 9 8 8 9 11 15 18 18 15 13 13 14 17 20 22 23 24 25 24 23 23 23 22 21 21 21
8 8 7 6 7 8 9 10 9 9 11 14 16 16 16 16 17 16 15 15 14 14 15 15 15 14 14 14 13 12 13 15 16 17 17 18 18 16 14 14 16 19 20 21 21 20 20 21 22 23 26 25 20 13 8 7 8 9 8 7 7 7 7 7 7 8 10 12 13 13 12 11 12 14 16 20 22 24 24 24 23 22 22 21 20 19 20
10 10 9 8 10 11 12 12 11 10 10 14 19 21 19 18 18 18 18 18 17 17 18 18 16 16 16 16 14 12 12 13 15 15 14 13 15 17 17 16 17 19 21 23 23 23 23 22 22 23 25 26 24 20 15 9 7 6 6 5 4 5 7 7 8 8 8 9 10 11 10 9 9 10 11 14 17 17 18 19 20 19 19 19 18 18 19
13 14 15 14 15 14 13 12 12 13 14 18 22 24 22 21 21 21 20 19 19 19 19 19 18 18 18 18 18 18 18 18 18 17 13 8 7 12 17 17 15 16 19 22 23 24 25 25 25 24 25 25 24 24 22 18 14 12 11 8 4 4 5 6 7 9 8 7 7 8 8 8 6 5 4 6 9 12 16 18 19 18 18 19 19 19 17
15 18 19 18 16 16 17 18 20 22 23 20 18 19 21 24 25 24 23 21 20 19 20 20 20 19 20 20 21 22 24 25 25 25 22 18 16 20 24 22 17 16 19 24 26 27 27 28 28 27 25 24 24 24 24 23 22 20 17 12 7 4 5 5 6 7 7 5 5 6 7 7 7 7 7 7 8 13 19 22 22 21 21 21 21 20 19
18 19 19 19 19 20 23 25 25 24 20 14 9 11 17 21 23 24 25 25 24 23 24 24 23 22 23 23 22 20 20 21 22 24 26 27 27 28 29 29 26 25 27 29 31 30 29 29 30 29 26 25 25 25 24 24 24 23 20 16 11 6 5 5 6 6 6 4 4 5 7 8 9 11 12 12 14 18 22 24 24 24 24 22 21 20 19
18 17 18 21 23 23 25 25 21 16 13 11 11 13 17 20 21 22 23 24 24 25 25 26 26 25 26 26 25 24 23 20 16 16 22 27 29 29 30 31 31 30 31 31 32 31 30 29 30 30 29 28 27 27 25 24 24 24 22 19 15 10 7 7 9 10 10 9 8 8 10 12 13 15 16 17 18 19 19 19 19 19 18 18 17 16 15
19 19 21 23 23 22 21 19 14 10 11 15 18 19 20 21 21 21 20 20 20 21 22 23 24 25 25 26 26 27 28 26 22 20 23 28 29 28 29 30 31 31 32 32 32 32 31 31 30 30 31 31 30 30 28 26 24 23 22 22 20 17 12 7 7 8 10 11 12 13 13 13 14 14 14 14 13 13 13 13 13 14 14 15 14 13 11
20 20 19 18 19 19 18 15 12 12 16 19 20 20 22 21 17 17 19 18 16 17 20 21 21 22 24 26 26 27 28 29 27 26 27 29 29 29 29 29 30 31 32 32 32 32 33 33 33 32 32 32 31 31 30 29 28 25 23 22 22 21 18 13 9 7 7 8 9 10 10 10 10 10 9 10 10 10 9 10 11 12 13 13 12 10 9
18 17 16 17 18 20 21 21 19 20 22 22 21 22 23 20 16 16 20 20 14 12 16 19 19 20 23 25 26 27 27 27 27 27 27 27 27 28 29 30 30 31 31 31 31 31 31 32 33 34 34 33 32 31 30 30 30 28 26 23 22 21 20 18 15 14 12 10 10 9 9 8 6 5 5 7 8 8 9 10 11 12 12 12 11 10 10
19 19 19 20 21 22 24 25 26 26 24 23 22 21 21 20 18 19 21 21 16 12 14 16 17 19 22 25 25 26 27 27 27 26 26 26 26 28 28 29 30 30 30 30 30 30 29 30 31 32 33 34 33 32 31 30 30 29 27 25 23 22 21 20 19 17 16 14 13 13 12 10 9 7 5 4 6 8 10 11 12 11 11 11 10 10 11
Wind_Direction
224 206 207 212 206 194 198 205 204 195 197 202 205 211 188 146 188 231 208 182 206 228 244 239 231 237 248 234 216 217 217 197 176 169 182 192 196 193 190 193 189 186 188 184 180 183 185 184 185 186 188 191 191 192 193 192 191 192 192 193 193 194 195 198 200 201 202 203 204 206 208 210 212 213 213 214 215 214 213 213 213 214 214 214 214 214 215
242 215 207 212 215 209 199 209 208 198 197 201 207 212 194 176 205 215 178 192 218 220 224 234 237 235 242 243 206 188 218 211 179 166 173 182 187 188 192 195 192 191 191 186 182 182 182 183 183 184 188 190 191 193 193 192 193 193 192 193 194 195 197 199 200 201 202 203 204 205 207 209 211 212 213 214 214 214 214 214 214 214 214 214 214 214 215
264 224 209 209 217 213 204 210 210 205 204 202 207 214 202 195 216 206 174 199 230 246 237 240 246 233 225 224 163 172 207 217 197 185 180 180 184 187 192 195 193 192 189 184 182 179 180 184 185 186 188 190 192 194 193 193 194 192 192 194 196 197 200 201 200 200 202 203 204 205 207 209 210 211 212 213 214 214 214 214 214 213 213 213 214 215 216
298 244 215 209 215 217 212 214 210 204 206 206 208 208 197 194 202 193 188 210 233 249 244 246 251 229 208 202 173 173 203 210 204 198 187 187 191 190 192 193 191 190 186 180 179 181 185 188 187 189 190 190 192 194 194 195 194 192 192 195 197 200 201 201 199 200 202 203 204 206 207 208 210 211 211 212 213 213 213 213 213 211 211 212 213 215 216
302 287 243 212 209 219 225 221 205 190 199 214 217 210 201 195 179 173 199 215 220 217 205 220 237 225 212 211 188 173 190 187 188 191 183 187 196 193 191 188 184 186 186 182 182 184 187 189 191 193 191 191 194 196 196 196 193 191 194 196 198 200 201 200 200 201 202 203 204 206 207 208 209 209 209 211 213 213 212 212 211 210 210 211 213 214 216
280 299 280 219 201 215 231 214 175 173 187 198 204 215 218 213 204 203 213 211 211 209 192 197 216 215 215 228 221 197 186 182 183 184 178 180 187 190 191 191 188 186 184 185 188 190 191 192 195 196 194 194 198 199 197 195 191 192 195 197 199 200 201 201 202 202 202 203 205 207 207 207 207 207 209 211 213 212 211 211 210 209 210 211 213 215 216
267 299 282 213 203 215 230 209 157 174 183 174 162 131 305 240 233 229 216 202 212 223 217 202 198 193 204 256 336 5 7 231 193 186 181 182 184 185 187 189 194 194 191 192 193 194 197 197 196 196 196 198 200 199 197 194 193 195 196 197 199 201 201 202 203 202 202 203 205 206 207 206 205 206 208 210 211 210 209 209 209 210 211 212 214 217 218
259 292 258 216 220 222 205 74 94 139 158 154 130 66 359 312 274 166 128 125 147 136 141 212 185 164 145 90 39 22 16 1 300 222 205 195 189 189 190 189 191 194 196 197 197 198 199 199 197 196 197 199 199 198 196 194 195 197 197 198 200 200 201 202 203 203 203 203 204 205 204 203 203 205 207 208 209 207 207 208 209 210 213 214 216 217 217
240 281 269 243 250 253 151 109 60 121 155 164 141 113 305 312 337 131 137 127 125 111 85 279 248 165 105 68 18 357 3 356 329 281 250 228 203 195 195 197 203 205 202 201 201 199 197 196 196 198 200 200 197 196 196 195 197 198 199 200 201 201 202 203 203 204 203 202 203 203 201 201 202 204 204 205 205 204 204 205 206 209 212 214 214 214 213
302 307 276 241 202 217 225 250 227 144 139 149 127 109 285 306 340 348 135 120 111 102 77 344 308 57 75 52 332 334 350 349 346 341 316 279 226 204 205 208 217 224 218 213 211 203 194 193 197 199 201 200 196 195 195 195 197 199 200 203 203 202 204 204 204 204 203 202 201 200 200 201 201 201 202 202 203 203 203 204 205 207 209 209 209 209 210
349 320 268 240 179 205 311 339 344 37 134 127 99 77 324 288 322 338 94 106 98 102 97 55 37 76 85 221 273 319 345 346 354 360 349 338 334 311 261 226 218 216 213 215 216 208 198 196 200 200 200 197 195 195 195 195 196 198 202 205 205 205 207 206 204 203 202 201 200 199 199 200 199 199 199 200 201 202 202 203 202 203 203 201 201 204 207
342 323 279 260 131 34 336 337 331 315 297 112 96 95 237 268 315 342 84 98 97 112 113 85 68 85 135 202 256 315 336 344 6 13 2 353 358 10 7 348 301 237 216 209 205 203 204 206 205 202 198 195 194 197 198 197 197 200 204 206 207 208 208 207 204 202 201 200 200 199 199 198 197 197 197 197 198 197 197 197 196 194 193 192 192 194 198
327 314 288 279 122 26 341 331 317 306 302 113 118 191 215 208 342 33 82 92 95 94 92 83 79 94 121 158 297 326 349 14 22 19 7 354 1 10 6 1 356 312 235 218 204 200 204 209 209 204 197 192 194 198 199 199 202 205 207 208 209 210 208 204 202 201 201 200 200 198 197 194 193 194 194 193 192 190 188 187 185 183 183 184 184 185 188
314 299 294 297 216 18 349 333 317 317 330 165 170 182 177 124 90 68 66 72 69 65 69 75 88 95 66 43 20 2 14 25 21 14 10 6 5 5 358 357 2 1 285 237 227 218 215 214 214 210 202 196 197 199 198 203 209 210 209 210 211 210 206 201 199 198 199 199 197 195 193 190 188 188 189 188 185 182 178 177 175 174 175 176 177 178 181
320 306 320 334 260 328 344 338 333 8 23 263 206 103 77 71 72 68 62 58 55 68 77 74 71 71 52 33 27 24 24 26 23 20 18 10 1 1 1 354 351 353 2 356 288 276 260 248 233 219 209 209 213 210 208 212 214 213 211 211 211 209 203 199 196 195 195 194 192 190 188 185 183 182 181 179 175 172 170 169 167 166 168 169 169 169 173
76 319 322 343 275 310 337 344 330 337 338 310 311 89 76 53 57 71 70 54 48 72 86 78 62 55 43 27 21 22 24 23 21 20 20 15 7 2 360 350 345 347 358 19 37 56 59 35 152 169 179 195 220 248 250 244 239 231 219 210 206 203 199 195 192 190 189 188 186 184 182 180 177 174 172 168 165 165 164 162 160 159 160 162 162 162 165
170 178 253 279 294 317 343 356 323 323 355 8 22 79 93 72 46 69 84 76 60 65 79 77 62 49 40 31 27 25 22 19 18 17 14 13 9 1 358 359 358 358 5 18 29 41 43 48 104 138 147 161 159 29 292 263 268 262 234 211 198 194 192 190 187 183 180 179 179 178 177 175 171 167 164 160 157 156 155 154 154 153 154 157 159 159 162
235 186 228 278 318 343 355 1 353 359 19 21 12 33 76 81 75 79 89 95 88 77 81 81 69 51 41 39 34 30 27 22 19 18 15 13 9 3 1 2 5 10 21 33 39 36 26 27 51 93 112 147 178 277 311 270 202 212 210 197 190 188 185 181 178 173 168 166 165 164 163 160 155 151 149 144 139 138 142 149 154 154 153 154 156 158 163
282 163 157 319 321 338 1 9 8 7 15 22 21 20 33 57 73 76 78 87 89 81 78 82 79 62 49 46 38 29 27 26 22 18 17 14 9 7 5 3 6 16 26 32 39 37 26 26 39 64 82 97 154 193 206 192 156 154 163 172 180 182 174 167 162 156 149 141 134 130 129 128 126 124 128 135 140 145 153 160 160 155 154 154 156 161 167
275 170 58 356 315 316 12 20 19 11 10 16 23 24 28 39 54 65 67 70 79 78 73 79 83 72 54 51 51 42 32 28 23 19 17 11 6 10 12 10 13 23 31 38 47 47 36 38 53 70 76 75 91 139 162 166 158 147 135 124 111 107 120 126 126 126 125 122 120 118 120 126 131 135 144 155 159 162 168 172 168 160 157 160 165 169 172
288 278 27 2 332 340 12 16 22 20 15 15 17 22 36 43 45 57 61 57 63 74 72 72 79 74 62 52 56 54 46 38 30 24 21 17 13 13 13 16 25 41 48 49 55 54 52 63 78 85 88 95 112 128 143 156 155 142 132 128 124 116 111 111 114 118 120 122 123 125 129 135 141 147 156 162 163 165 172 175 174 169 167 171 175 176 175
356 344 17 2 344 344 353 359 20 27 21 19 18 18 33 44 43 51 61 59 55 58 59 61 71 74 65 50 55 58 51 42 35 28 25 24 21 17 16 18 29 47 56 56 56 56 62 81 98 103 102 107 117 127 138 148 147 140 135 138 139 137 135 133 130 128 126 127 130 134 138 140 139 139 145 153 160 165 169 172 176 180 182 183 183 180 177
211 284 338 339 336 344 328 339 25 39 29 23 23 16 14 27 41 52 64 67 60 53 47 45 61 74 69 52 55 60 51 41 39 37 33 31 26 19 19 22 27 37 47 48 48 52 58 75 98 113 116 117 119 122 124 128 131 130 127 126 130 133 136 139 141 139 135 135 137 137 138 138 136 133 132 139 152 162 166 169 176 184 187 186 184 182 180
259 312 337 311 258 302 329 353 32 42 33 26 33 27 3 354 18 53 66 68 67 66 58 41 44 66 72 62 58 61 54 44 41 43 43 41 37 29 26 26 28 32 37 38 35 37 38 41 54 77 96 103 109 115 116 112 109 110 110 106 105 112 119 126 132 135 135 136 135 134 135 135 135 134 132 131 136 147 156 164 171 174 174 174 177 181 180
242 291 299 269 210 205 241 47 51 46 34 20 38 68 45 357 358 37 63 64 58 64 70 58 42 51 66 69 63 61 58 48 45 51 52 47 43 39 32 29 29 35 42 46 42 35 31 29 26 23 46 89 106 119 126 123 111 100 107 117 121 125 131 133 131 132 137 137 134 134 135 135 135 136 137 135 132 131 138 150 160 165 167 170 174 179 179
233 255 258 226 161 174 243 75 68 60 56 43 25 53 53 35 20 31 51 57 46 40 55 60 49 48 60 69 67 62 63 56 50 51 52 48 45 42 35 31 34 40 46 48 44 39 42 50 47 32 12 15 139 135 136 137 134 131 132 133 132 136 143 142 137 138 142 141 135 134 135 136 137 138 140 141 139 137 136 140 146 154 164 173 180 184 185
273 248 220 184 148 124 312 108 102 90 81 74 62 50 43 30 17 24 43 50 41 33 32 28 25 38 51 57 61 63 60 56 52 49 47 45 46 47 44 40 38 43 49 49 44 40 44 53 56 46 28 1 284 174 155 151 149 143 137 133 134 140 143 140 136 136 139 138 135 135 137 138 139 140 140 142 142 141 141 142 141 141 150 165 176 183 187
316 287 199 145 125 111 109 107 96 82 68 57 57 61 56 41 21 26 39 42 34 29 27 21 17 26 38 39 48 57 53 50 51 48 42 41 43 49 53 49 43 44 48 47 43 41 41 45 49 47 40 37 55 116 135 136 132 128 127 129 135 140 139 136 134 135 137 138 138 139 140 140 141 142 142 142 142 141 143 145 145 143 144 151 162 173 182
339 347 102 105 98 84 78 84 83 77 62 49 48 48 50 61 61 46 34 27 22 21 18 10 11 22 31 32 43 53 49 44 44 39 37 41 45 50 55 54 51 50 47 43 39 37 39 45 48 45 47 63 86 105 117 122 118 116 119 127 132 135 134 134 135 137 137 138 139 140 141 142 144 145 144 143 143 143 143 144 144 144 144 146 150 158 166
360 65 103 104 97 90 85 86 89 89 78 67 62 49 35 57 77 64 34 19 23 21 6 351 358 13 19 21 36 52 57 52 43 36 35 39 43 48 52 52 50 48 43 39 38 35 36 45 48 44 53 77 94 103 119 131 132 131 136 141 141 139 138 138 138 138 137 138 140 142 143 144 146 146 146 147 147 146 147 148 148 146 146 149 152 156 159
45 71 79 80 81 86 90 88 90 88 79 75 79 70 48 52 68 64 29 8 7 4 360 360 1 2 359 1 20 44 60 61 50 43 41 41 42 46 51 53 55 53 45 43 41 36 36 42 43 44 57 81 93 93 114 144 146 143 145 147 143 140 141 142 142 142 142 142 144 144 145 147 149 151 152 153 154 154 154 153 154 154 155 157 161 165 167
74 77 72 71 78 82 74 61 69 64 50 46 74 91 90 82 80 68 18 348 341 338 348 355 347 337 345 5 23 38 55 61 55 50 46 43 40 41 46 52 56 54 50 47 45 41 40 41 42 45 54 76 100 112 125 148 145 139 141 144 142 142 144 144 143 143 144 144 145 147 149 151 153 155 157 158 158 160 160 160 162 164 164 165 170 175 176
76 78 70 68 84 93 82 64 59 62 56 46 37 34 42 75 91 96 292 301 312 320 327 327 313 308 317 351 28 40 48 55 55 50 46 44 43 43 46 49 51 51 49 48 47 47 46 44 45 50 55 65 94 120 131 129 120 126 137 144 146 147 148 148 146 145 144 145 147 150 154 156 157 159 162 163 164 166 168 168 170 172 172 174 179 182 182
65 84 82 67 92 104 98 85 75 80 83 78 62 37 18 16 20 334 294 292 297 304 296 289 303 316 311 301 334 17 32 46 54 49 46 46 44 43 47 51 52 51 49 46 46 48 48 44 42 47 55 61 76 107 126 125 118 122 134 143 147 150 150 150 150 150 149 151 156 159 160 163 164 165 167 169 172 177 180 180 179 178 178 180 184 185 183
58 100 120 144 154 129 113 101 90 88 91 91 88 68 36 31 37 33 16 347 340 345 326 311 339 12 25 19 4 10 21 33 41 42 49 55 51 49 53 56 54 51 47 42 41 45 49 48 46 46 50 55 62 81 111 120 114 115 125 135 143 150 154 153 154 157 159 160 163 165 166 168 170 172 174 176 180 185 187 186 184 182 181 182 184 185 184
55 92 111 126 130 101 90 82 78 79 82 85 85 73 57 53 54 49 38 33 38 43 45 41 40 45 48 46 43 43 43 46 48 52 60 69 71 66 59 52 47 47 45 39 37 41 46 48 52 56 58 59 62 71 96 111 110 114 123 128 132 143 152 155 159 165 167 167 169 171 172 173 176 178 180 180 181 185 187 185 183 183 182 181 181 181 180
48 74 86 85 74 73 74 74 73 75 74 70 69 68 65 60 59 58 53 48 48 54 59 60 58 59 58 56 57 55 52 50 52 55 61 70 71 67 60 52 47 48 44 34 36 43 48 49 52 58 63 68 75 83 99 114 115 118 128 132 131 134 141 150 159 166 168 172 178 180 178 175 177 180 183 182 180 181 184 182 179 178 179 178 177 176 174
42 57 65 65 60 57 60 66 70 71 70 67 63 62 63 65 65 63 58 51 50 56 61 62 62 63 61 60 59 55 50 52 56 56 57 63 65 62 57 51 49 49 49 47 49 51 54 55 58 59 59 65 77 92 107 116 113 113 129 145 144 133 133 146 159 163 171 188 190 177 165 164 170 175 181 181 178 177 179 177 172 172 173 174 175 174 172
60 62 63 61 56 49 48 57 62 59 54 54 56 56 58 62 65 63 56 48 49 56 62 63 62 61 60 59 57 53 52 56 59 57 55 58 62 61 55 50 50 53 56 58 58 57 55 55 59 63 63 63 72 89 106 111 101 91 102 121 124 123 142 166 169 170 188 226 184 129 137 152 157 160 166 170 169 170 171 170 167 168 170 173 177 179 177
73 81 82 77 72 66 56 59 62 57 51 49 53 56 57 61 65 65 58 51 51 58 66 68 64 59 59 60 59 59 60 58 55 54 55 57 58 57 53 47 49 54 59 60 59 59 56 52 52 54 58 63 70 81 107 127 119 91 92 107 112 118 145 163 162 161 162 152 140 142 148 143 135 135 139 146 156 164 168 167 167 169 172 176 183 186 184
64 68 68 65 67 68 56 54 62 63 57 53 54 57 60 63 66 69 71 69 66 66 70 74 74 70 69 71 70 68 66 60 55 54 59 61 59 56 50 42 45 52 57 58 58 59 57 54 51 47 47 54 63 65 77 115 138 156 137 120 115 117 131 141 144 144 137 132 138 149 147 130 126 132 139 144 155 168 175 176 177 178 179 183 187 189 187
49 50 49 46 46 47 43 44 48 50 46 45 47 51 56 61 65 67 73 78 76 69 68 73 76 75 74 75 72 65 61 60 58 58 61 62 61 61 58 49 50 55 59 58 57 55 52 49 47 44 42 48 60 69 77 92 109 135 156 141 125 121 116 108 115 129 129 127 130 135 132 132 145 154 154 158 168 177 181 184 185 182 182 186 188 188 189
43 42 42 41 39 38 38 41 44 42 37 36 39 43 48 54 57 60 62 63 62 62 62 66 70 72 70 66 62 57 55 56 58 58 57 58 60 64 66 59 54 55 57 57 56 53 47 42 40 40 41 46 55 67 83 103 114 121 126 123 123 131 128 107 100 112 122 123 124 124 129 151 179 184 174 171 174 175 175 179 181 181 184 189 190 191 194
43 44 45 45 44 44 44 43 43 43 40 39 41 44 46 46 48 55 62 63 61 61 64 64 63 63 61 59 57 55 54 54 55 54 52 53 55 57 58 55 51 52 53 55 55 53 48 42 40 39 40 44 50 56 62 74 88 85 71 63 83 122 134 135 135 135 129 123 124 128 137 159 182 189 180 173 168 162 159 161 165 170 178 185 189 191 193
46 47 49 49 47 46 46 46 46 47 47 45 43 43 45 48 51 57 65 68 64 62 64 66 65 62 62 62 61 59 55 51 48 45 45 42 36 36 38 40 41 46 51 52 51 47 42 39 39 39 39 41 44 47 49 52 55 54 49 48 67 115 128 128 138 145 145 139 139 144 147 149 155 166 178 178 168 156 147 146 150 157 165 174 180 182 181
49 45 45 45 44 41 42 46 47 45 43 42 39 38 44 53 58 59 59 59 58 57 59 63 65 66 67 67 66 64 60 55 50 49 51 54 51 46 45 46 47 48 49 47 43 39 36 36 38 39 39 41 42 42 40 40 41 42 41 41 51 100 126 121 127 142 151 151 149 151 149 150 165 185 201 208 189 163 150 144 142 143 145 149 153 153 152
49 45 42 41 41 41 41 42 42 39 37 35 26 24 37 51 61 62 61 59 59 59 61 62 63 63 65 65 63 63 62 59 53 50 53 58 59 55 53 55 58 59 58 53 48 45 43 43 42 42 41 41 42 40 37 35 36 37 38 40 48 71 99 107 113 125 131 131 137 146 147 147 154 159 160 157 152 147 143 139 135 133 135 137 138 140 143
53 49 44 41 41 40 39 39 38 35 31 29 24 23 31 42 52 57 61 64 65 65 65 66 65 64 65 66 64 62 65 67 61 49 50 57 60 58 55 56 59 61 61 57 53 49 48 47 47 46 45 44 43 43 42 40 39 39 38 39 44 56 81 106 114 112 107 105 111 126 137 141 139 136 133 132 133 136 138 139 139 140 143 145 146 149 153
54 51 47 44 41 39 37 37 36 29 26 30 31 31 33 38 41 41 45 54 63 66 65 65 67 68 68 68 66 65 66 69 69 62 58 60 61 60 57 57 58 59 59 56 52 48 48 48 48 49 48 46 44 43 44 44 43 42 40 40 42 46 54 79 107 112 108 107 110 115 124 132 136 136 135 135 136 139 143 147 150 155 159 161 159 159 161
52 49 47 44 42 39 38 37 33 27 28 31 32 32 33 36 35 28 26 35 53 68 69 67 69 72 71 68 67 67 68 68 67 66 65 64 63 62 61 60 58 57 57 55 51 48 47 46 46 46 47 46 43 41 41 42 43 42 41 40 41 43 45 48 56 67 77 93 107 116 126 137 146 153 158 158 157 156 158 158 159 161 166 171 172 173 176
54 49 47 46 45 44 42 38 34 31 30 32 33 34 35 34 32 26 22 23 35 66 77 71 68 71 72 70 67 67 68 68 67 67 67 66 64 63 62 60 58 56 56 55 52 50 48 47 45 45 46 45 43 41 40 40 40 40 40 39 39 41 44 46 49 49 49 54 67 84 99 114 127 143 165 179 182 178 172 170 170 170 171 175 182 186 190
60 55 52 49 46 43 42 40 38 36 35 35 36 38 37 34 32 28 23 20 26 58 84 80 68 65 69 70 67 66 67 67 66 65 64 62 60 59 58 57 56 55 54 55 54 52 50 48 47 46 46 45 44 43 42 40 39 39 40 40 39 41 43 47 50 52 52 52 55 60 67 73 79 86 106 156 186 187 180 178 178 178 177 180 186 189 188